Killeen, TX

1:36 PM CST on January 23, 2017 (GMT -0600)
Hood Army Air Field

Weather History for KHLR - January, 2014

Change the Weather History Date:

Saturday, January 4, 2014

  Actual Average Record
Temperature  
Mean Temperature 58 °F -  
Max Temperature 72 °F 59 °F 75 °F (2005)
Min Temperature 43 °F 39 °F 28 °F (1999)
Degree Days  
Heating Degree Days 8    
Growing Degree Days 8 (Base 50)    
Moisture  
Dew Point 43 °F    
Average Humidity 61    
Maximum Humidity 89    
Minimum Humidity 41    
Precipitation  
Precipitation 0.00 in - - ()
Sea Level Pressure  
Sea Level Pressure 29.99 in    
Wind  
Wind Speed 11 mph (SSE)    
Max Wind Speed 18 mph    
Max Gust Speed 28 mph    
Visibility 10 miles    
Events      
Averages and records for this station are not official NWS values.
T = Trace of Precipitation, MM = Missing Value Source: NWS Daily Summary

Daily Weather History Graph

Daily Weather History Graph

Search for Another Location

Airport or City:

Trip Planner

Search our weather history database for the weather conditions in past years. The results will help you decide how hot, cold, wet, or windy it might be!

Date:

Astronomy

Jan. 04, 2014 Rise Set
Actual Time 7:29 AM CST 5:41 PM CST
Civil Twilight 7:03 AM CST 6:08 PM CST
Nautical Twilight 6:33 AM CST 6:38 PM CST
Astronomical Twilight 6:03 AM CST 7:08 PM CST
Moon 9:52 AM CST (1/4) 9:45 PM CST (1/4)
Length of Visible Light 11h 05m
Length of Day
10h 11m
Waxing Crescent, 15% of the Moon is Illuminated
Jan 4
Waxing Crescent
Jan 7
First Quarter
Jan 15
Full
Jan 23
Last Quarter
Jan 30
New

Hourly Weather History & Observations

Time (CST) Temp. Windchill Dew Point Humidity Pressure Visibility Wind Dir Wind Speed Gust Speed Precip Events Conditions
12:56 AM 44.1 °F 37.7 °F 30.9 °F 60% 30.14 in 10.0 mi SSE 12.7 mph - N/A   Clear
1:56 AM 44.1 °F 39.5 °F 32.0 °F 63% 30.13 in 10.0 mi SE 8.1 mph - N/A   Clear
2:56 AM 43.0 °F 37.7 °F 32.0 °F 65% 30.13 in 10.0 mi SSE 9.2 mph - N/A   Clear
3:56 AM 44.1 °F 37.7 °F 32.0 °F 63% 30.11 in 10.0 mi SSE 12.7 mph 18.4 mph N/A   Clear
4:56 AM 45.0 °F 39.7 °F 30.9 °F 58% 30.09 in 10.0 mi SSE 10.4 mph - N/A   Mostly Cloudy
5:31 AM 44.6 °F 40.2 °F 30.2 °F 57% 29.99 in 10.0 mi SSE 8.1 mph - N/A   Scattered Clouds
5:56 AM 44.1 °F 40.8 °F 30.9 °F 60% 30.09 in 10.0 mi SE 5.8 mph - N/A   Partly Cloudy
6:56 AM 45.0 °F 39.7 °F 32.0 °F 60% 30.09 in 10.0 mi SSE 10.4 mph - N/A   Clear
7:56 AM 44.1 °F 39.5 °F 41.0 °F 89% 30.08 in 10.0 mi SSE 8.1 mph - N/A   Clear
8:56 AM 50.0 °F - 45.0 °F 83% 30.08 in 10.0 mi SSE 9.2 mph - N/A   Clear
9:56 AM 57.0 °F - 46.9 °F 69% 30.08 in 10.0 mi South 13.8 mph - N/A   Mostly Cloudy
10:31 AM 60.8 °F - 46.4 °F 59% 29.97 in 10.0 mi South 17.3 mph 26.5 mph N/A   Scattered Clouds
10:56 AM 63.0 °F - 46.9 °F 56% 30.05 in 10.0 mi South 16.1 mph 27.6 mph N/A   Partly Cloudy
11:56 AM 66.9 °F - 46.9 °F 49% 30.01 in 10.0 mi South 13.8 mph 27.6 mph N/A   Clear
12:56 PM 70.0 °F - 46.9 °F 44% 29.94 in 10.0 mi South 18.4 mph 27.6 mph N/A   Clear
1:56 PM 71.1 °F - 46.9 °F 42% 29.91 in 10.0 mi South 16.1 mph 26.5 mph N/A   Clear
2:56 PM 72.0 °F - 46.9 °F 41% 29.89 in 10.0 mi South 15.0 mph 21.9 mph N/A   Clear
3:56 PM 71.1 °F - 46.9 °F 42% 29.88 in 10.0 mi SSE 17.3 mph 25.3 mph N/A   Clear
4:56 PM 68.0 °F - 48.0 °F 49% 29.89 in 10.0 mi SSE 10.4 mph - N/A   Clear
5:56 PM 64.0 °F - 50.0 °F 60% 29.90 in 10.0 mi SSE 6.9 mph - N/A   Clear
6:56 PM 63.0 °F - 50.0 °F 63% 29.90 in 10.0 mi SSE 9.2 mph - N/A   Clear
7:56 PM 62.1 °F - 50.0 °F 65% 29.89 in 10.0 mi SSE 9.2 mph - N/A   Clear
8:56 PM 63.0 °F - 51.1 °F 65% 29.88 in 10.0 mi SSE 13.8 mph - N/A   Clear
9:56 PM 62.1 °F - 51.1 °F 67% 29.88 in 10.0 mi SSE 8.1 mph - N/A   Clear
10:56 PM 61.0 °F - 53.1 °F 75% 29.86 in 10.0 mi SSE 12.7 mph - N/A   Clear
11:56 PM 60.1 °F - 54.0 °F 80% 29.85 in 10.0 mi South 6.9 mph 16.1 mph N/A   Clear